Annette Island, AK

12:03 PM AKDT on August 21, 2017 (GMT -0800)
Annette Island

Weather History for PANT - April, 2013

Change the Weather History Date:

Wednesday, April 17, 2013

  Actual Average Record
Temperature  
Mean Temperature 44 °F 44 °F  
Max Temperature 46 °F 51 °F 64 °F (2017)
Min Temperature 41 °F 38 °F 29 °F (1971)
Degree Days  
Heating Degree Days 21 21  
Month to date heating degree days 369 372  
Since 1 July heating degree days 5707 5694  
Cooling Degree Days 0    
Month to date cooling degree days 0  
Year to date cooling degree days 0  
Moisture  
Dew Point 42 °F    
Average Humidity 0    
Maximum Humidity 0    
Minimum Humidity 0    
Precipitation  
Precipitation 0.78 in 0.21 in 4.75 in (1956)
Month to date precipitation 3.69 4.09  
Year to date precipitation 29.61 30.18  
Snow  
Snow 0.00 in 0.00 in T in (1987)
Month to date snowfall T 1.1  
Since 1 July snowfall 12.8 34.5  
Snow Depth 0.00 in    
Sea Level Pressure  
Sea Level Pressure 30.16 in    
Wind  
Wind Speed 11 mph (SSE)    
Max Wind Speed 22 mph    
Max Gust Speed 32 mph    
Visibility 4 miles    
Events Rain    
T = Trace of Precipitation, MM = Missing Value Source: NWS Daily Summary

Daily Weather History Graph

Daily Weather History Graph

Search for Another Location

Airport or City:

Trip Planner

Search our weather history database for the weather conditions in past years. The results will help you decide how hot, cold, wet, or windy it might be!

Date:

Astronomy

Apr. 17, 2013 Rise Set
Actual Time 5:37 AM AKDT 7:55 PM AKDT
Civil Twilight 4:57 AM AKDT 8:35 PM AKDT
Nautical Twilight 4:07 AM AKDT 9:26 PM AKDT
Astronomical Twilight 3:06 AM AKDT 10:27 PM AKDT
Moon 10:38 AM AKDT (4/17) 1:58 AM AKDT (4/17)
Length of Visible Light 15h 37m
Length of Day
14h 18m
Waxing Crescent, 44% of the Moon is Illuminated
Apr 17
Waxing Crescent
Apr 18
First Quarter
Apr 25
Full
May 2
Last Quarter
May 9
New

Hourly Weather History & Observations

Time (AKDT) Temp. Windchill Dew Point Humidity Pressure Visibility Wind Dir Wind Speed Gust Speed Precip Events Conditions
12:04 AM 41.0 °F 33.5 °F 37.4 °F 87% 30.21 in 10.0 mi SE 13.8 mph 20.7 mph 0.01 in Rain Light Rain
12:53 AM 41.0 °F 33.9 °F 39.0 °F 93% 30.21 in 8.0 mi SSE 12.7 mph 19.6 mph 0.04 in Rain Light Rain
1:03 AM 41.0 °F 35.2 °F 37.4 °F 87% 30.19 in 6.0 mi SSE 9.2 mph 23.0 mph 0.01 in Rain Rain
1:06 AM 41.0 °F 35.2 °F 37.4 °F 87% 30.19 in 6.0 mi SSE 9.2 mph 23.0 mph 0.02 in Rain Rain
1:25 AM 41.0 °F 34.3 °F 39.2 °F 93% 30.19 in 7.0 mi SSE 11.5 mph 24.2 mph 0.03 in Rain Light Rain
1:35 AM 41.0 °F 35.8 °F 39.2 °F 93% 30.19 in 7.0 mi SSE 8.1 mph 20.7 mph 0.04 in Rain Light Rain
1:42 AM 41.0 °F 33.9 °F 39.2 °F 93% 30.19 in 6.0 mi SSE 12.7 mph 21.9 mph 0.05 in Rain Light Rain
1:53 AM 41.0 °F 33.9 °F 39.0 °F 93% 30.19 in 7.0 mi SSE 12.7 mph 21.9 mph 0.05 in Rain Light Rain
2:19 AM 41.0 °F 34.3 °F 39.2 °F 93% 30.18 in 4.0 mi SSE 11.5 mph 23.0 mph 0.03 in Rain Light Rain
2:44 AM 41.0 °F 33.9 °F 39.2 °F 93% 30.17 in 9.0 mi SSE 12.7 mph 21.9 mph 0.04 in Rain Light Rain
2:53 AM 41.0 °F 32.5 °F 37.9 °F 89% 30.18 in 10.0 mi SSE 17.3 mph 23.0 mph 0.05 in Rain Light Rain
3:23 AM 41.0 °F 34.3 °F 39.2 °F 93% 30.17 in 6.0 mi SSE 11.5 mph 27.6 mph 0.01 in Rain Light Rain
3:53 AM 41.0 °F 33.1 °F 39.0 °F 93% 30.17 in 9.0 mi SSE 15.0 mph 26.5 mph 0.04 in Rain Light Rain
4:19 AM 41.0 °F 33.5 °F 39.2 °F 93% 30.15 in 5.0 mi SSE 13.8 mph 27.6 mph 0.01 in Rain Light Rain
4:53 AM 42.1 °F 33.3 °F 39.9 °F 92% 30.15 in 4.0 mi SSE 19.6 mph 32.2 mph 0.02 in Rain Light Rain
5:53 AM 41.0 °F 31.9 °F 39.9 °F 96% 30.14 in 4.0 mi SE 19.6 mph 29.9 mph 0.03 in Rain Light Rain
6:53 AM 42.1 °F 33.9 °F 39.9 °F 92% 30.13 in 4.0 mi SE 17.3 mph 27.6 mph 0.08 in Rain Rain
7:53 AM 42.1 °F 34.2 °F 39.9 °F 92% 30.13 in 2.0 mi SE 16.1 mph 26.5 mph 0.07 in Rain Light Rain
8:02 AM 42.8 °F 34.8 °F 41.0 °F 93% 30.12 in 1.5 mi SE 17.3 mph 27.6 mph 0.01 in Rain Light Rain
8:53 AM 43.0 °F 35.4 °F 42.1 °F 97% 30.13 in 1.8 mi SSE 16.1 mph 27.6 mph 0.09 in Rain Light Rain
9:37 AM 44.6 °F 37.8 °F 42.8 °F 93% 30.12 in 2.0 mi SSE 15.0 mph 27.6 mph 0.05 in Rain Light Rain
9:53 AM 44.1 °F 36.8 °F 43.0 °F 96% 30.13 in 1.8 mi SSE 16.1 mph 27.6 mph 0.07 in Rain Rain
10:33 AM 44.6 °F 37.2 °F 42.8 °F 93% 30.12 in 2.0 mi SSE 17.3 mph 27.6 mph 0.08 in Rain Light Rain
10:44 AM 44.6 °F 37.2 °F 42.8 °F 93% 30.12 in 1.8 mi SSE 17.3 mph 26.5 mph 0.10 in Rain Light Rain
10:53 AM 44.1 °F 37.1 °F 43.0 °F 96% 30.13 in 1.8 mi SSE 15.0 mph 25.3 mph 0.11 in Rain Light Rain
11:16 AM 44.6 °F 38.1 °F 44.6 °F 100% 30.12 in 1.5 mi SSE 13.8 mph 25.3 mph 0.04 in Rain Light Rain
11:53 AM 45.0 °F 38.9 °F 44.1 °F 97% 30.13 in 1.8 mi South 12.7 mph 26.5 mph 0.09 in Rain Light Rain
12:04 PM 44.6 °F 38.8 °F 44.6 °F 100% 30.13 in 2.5 mi SSE 11.5 mph 21.9 mph 0.01 in Rain Light Rain
12:44 PM 46.4 °F 42.4 °F 44.6 °F 93% 30.14 in 4.0 mi South 8.1 mph 18.4 mph 0.04 in Rain Light Rain
12:53 PM 46.0 °F 41.0 °F 45.0 °F 96% 30.14 in 4.0 mi South 10.4 mph - 0.04 in Rain Light Rain
1:53 PM 46.0 °F 42.5 °F 45.0 °F 96% 30.15 in 2.5 mi South 6.9 mph - 0.02 in Rain Light Rain
2:02 PM 46.4 °F 43.5 °F 44.6 °F 93% 30.15 in 1.8 mi South 5.8 mph - 0.01 in Rain Light Rain
2:10 PM 46.4 °F 43.5 °F 44.6 °F 93% 30.15 in 3.0 mi South 5.8 mph - 0.02 in Rain Light Rain
2:53 PM 46.0 °F 43.1 °F 44.1 °F 93% 30.15 in 9.0 mi SSE 5.8 mph - 0.02 in Rain Light Rain
3:13 PM 46.4 °F 43.5 °F 44.6 °F 93% 30.15 in 10.0 mi SE 5.8 mph - 0.00 in Rain Light Rain
3:53 PM 45.0 °F 40.6 °F 45.0 °F 100% 30.15 in 4.0 mi SE 8.1 mph - 0.01 in Rain Light Rain
4:19 PM 44.6 °F 40.7 °F 44.6 °F 100% 30.15 in 2.5 mi SSE 6.9 mph - 0.01 in Rain Light Rain
4:31 PM 44.6 °F 40.7 °F 44.6 °F 100% 30.15 in 2.0 mi SSE 6.9 mph - 0.01 in Rain Light Rain
4:42 PM 44.6 °F 42.2 °F 44.6 °F 100% 30.15 in 1.8 mi SSE 4.6 mph - 0.01 in Rain Light Rain
4:53 PM 45.0 °F 42.6 °F 44.1 °F 97% 30.16 in 1.8 mi SSE 4.6 mph - 0.02 in Rain Light Rain
5:03 PM 44.6 °F 40.7 °F 44.6 °F 100% 30.15 in 2.0 mi SSE 6.9 mph - 0.01 in Rain Light Rain
5:53 PM 45.0 °F 41.8 °F 44.1 °F 97% 30.16 in 1.8 mi Variable 5.8 mph - 0.03 in Rain Light Rain
6:43 PM 44.6 °F 41.4 °F 44.6 °F 100% 30.16 in 1.2 mi SSE 5.8 mph - 0.03 in Rain Light Rain
6:53 PM 44.1 °F 40.8 °F 44.1 °F 100% 30.16 in 2.5 mi SE 5.8 mph - 0.04 in Rain Light Rain
7:00 PM 44.6 °F 41.4 °F 44.6 °F 100% 30.15 in 2.5 mi SE 5.8 mph - 0.00 in   Overcast
7:53 PM 44.1 °F 40.8 °F 44.1 °F 100% 30.17 in 1.8 mi SE 5.8 mph - 0.01 in   Overcast
8:03 PM 44.6 °F 40.7 °F 44.6 °F 100% 30.16 in 2.0 mi SSE 6.9 mph - 0.01 in   Overcast
8:46 PM 44.6 °F 41.4 °F 44.6 °F 100% 30.16 in 3.0 mi SE 5.8 mph - 0.02 in   Overcast
8:53 PM 44.1 °F 40.1 °F 44.1 °F 100% 30.17 in 3.0 mi SE 6.9 mph - 0.02 in   Overcast
9:12 PM 44.6 °F 40.2 °F 44.6 °F 100% 30.16 in 2.5 mi SE 8.1 mph - N/A   Overcast
9:50 PM 44.6 °F 41.4 °F 44.6 °F 100% 30.17 in 3.0 mi SE 5.8 mph - 0.01 in   Overcast
9:53 PM 44.1 °F 40.1 °F 44.1 °F 100% 30.17 in 3.0 mi SE 6.9 mph - 0.01 in   Overcast
10:00 PM 44.6 °F 41.4 °F 44.6 °F 100% 30.17 in 2.0 mi SE 5.8 mph - 0.01 in Rain Light Rain
10:53 PM 44.1 °F 40.8 °F 44.1 °F 100% 30.17 in 2.0 mi SE 5.8 mph - 0.04 in   Overcast
11:20 PM 44.6 °F 42.2 °F 44.6 °F 100% 30.16 in 2.0 mi SSE 4.6 mph - 0.01 in   Overcast
11:53 PM 44.1 °F 41.5 °F 44.1 °F 100% 30.16 in 3.0 mi SSE 4.6 mph - 0.02 in   Overcast